Meteo pe oră la Czyzowka

Astăzi, 11 Aprilie, Duminică

Timp Temperatura Precipitaţii Vânt Presiune Umiditate
00:00 +9°C° 0 mm 2 m/s 750 mmHg 78%
01:00 +9°C° 0 mm 2 m/s 750 mmHg 76%
02:00 +9°C° 0 mm 2 m/s 750 mmHg 76%
03:00 +8°C° 0 mm 2 m/s 750 mmHg 76%
04:00 +8°C° 0 mm 3 m/s 750 mmHg 76%
05:00 +9°C° 0 mm 3 m/s 750 mmHg 74%
06:00 +8°C° 0 mm 4 m/s 750 mmHg 72%
07:00 +10°C° 0 mm 4 m/s 750 mmHg 70%
08:00 +12°C° 0 mm 5 m/s 750 mmHg 64%
09:00 +13°C° 0 mm 6 m/s 750 mmHg 58%
10:00 +15°C° 0 mm 7 m/s 750 mmHg 51%
11:00 +16°C° 0 mm 7 m/s 750 mmHg 49%
12:00 +17°C° 0 mm 7 m/s 749 mmHg 46%
13:00 +18°C° 0 mm 7 m/s 749 mmHg 43%
14:00 +17°C° 0 mm 7 m/s 749 mmHg 46%
15:00 +17°C° 0 mm 6 m/s 749 mmHg 48%
16:00 +16°C° 0 mm 6 m/s 749 mmHg 51%
17:00 +16°C° 0 mm 6 m/s 749 mmHg 53%
18:00 +15°C° 0 mm 6 m/s 749 mmHg 55%
19:00 +14°C° 0 mm 6 m/s 749 mmHg 57%
20:00 +13°C° 0 mm 6 m/s 750 mmHg 62%
21:00 +12°C° 0 mm 5 m/s 750 mmHg 67%
22:00 +12°C° 0 mm 5 m/s 750 mmHg 72%
23:00 +10°C° 0 mm 5 m/s 750 mmHg 74%

Mâine, 12 Aprilie, Luni

Timp Temperatura Precipitaţii Vânt Presiune Umiditate
00:00 +10°C° 0 mm 5 m/s 750 mmHg 75%
01:00 +10°C° 0 mm 5 m/s 750 mmHg 77%
02:00 +10°C° 0 mm 5 m/s 750 mmHg 77%
03:00 +10°C° 0 mm 5 m/s 749 mmHg 78%
04:00 +10°C° 0 mm 4 m/s 749 mmHg 78%
05:00 +10°C° 0 mm 4 m/s 749 mmHg 78%
06:00 +10°C° 0 mm 3 m/s 749 mmHg 79%
07:00 +10°C° 0 mm 3 m/s 749 mmHg 79%
08:00 +11°C° 0 mm 3 m/s 749 mmHg 75%
09:00 +12°C° 0 mm 3 m/s 749 mmHg 71%
10:00 +13°C° 0 mm 3 m/s 749 mmHg 67%
11:00 +13°C° 0 mm 3 m/s 749 mmHg 68%
12:00 +13°C° 0 mm 3 m/s 749 mmHg 69%
13:00 +13°C° 0 mm 3 m/s 749 mmHg 70%
14:00 +12°C° 0.3 mm 3 m/s 749 mmHg 76%
15:00 +11°C° 0.3 mm 3 m/s 750 mmHg 81%
16:00 +10°C° 0.3 mm 3 m/s 750 mmHg 87%
17:00 +8°C° 0 mm 4 m/s 750 mmHg 87%
18:00 +7°C° 0 mm 4 m/s 751 mmHg 87%
19:00 +6°C° 0 mm 5 m/s 752 mmHg 88%
20:00 +5°C° 0 mm 5 m/s 752 mmHg 88%
21:00 +5°C° 0 mm 5 m/s 752 mmHg 89%
22:00 +3°C° 0 mm 5 m/s 752 mmHg 89%
23:00 +3°C° 0 mm 5 m/s 753 mmHg 88%

Poimâine, 13 Aprilie, Marţi

Timp Temperatura Precipitaţii Vânt Presiune Umiditate
00:00 +2°C° 0 mm 5 m/s 753 mmHg 88%
01:00 +3°C° 0 mm 4 m/s 753 mmHg 87%
02:00 +3°C° 0.2 mm 4 m/s 753 mmHg 89%
03:00 +1°C° 0.2 mm 4 m/s 753 mmHg 91%
04:00 +1°C° 0.2 mm 4 m/s 753 mmHg 93%
05:00 +1°C° 0.9 mm 4 m/s 754 mmHg 95%
06:00 +1°C° 0.9 mm 4 m/s 754 mmHg 96%
07:00 0°C° 0.9 mm 5 m/s 754 mmHg 97%
08:00 +1°C° 0.4 mm 5 m/s 754 mmHg 97%
09:00 +1°C° 0.4 mm 5 m/s 755 mmHg 96%
10:00 +1°C° 0.4 mm 5 m/s 755 mmHg 95%
11:00 +2°C° 0.2 mm 5 m/s 755 mmHg 92%
12:00 +2°C° 0.2 mm 5 m/s 755 mmHg 89%
13:00 +3°C° 0.2 mm 5 m/s 754 mmHg 86%
14:00 +3°C° 0.6 mm 5 m/s 754 mmHg 86%
15:00 +3°C° 0.6 mm 5 m/s 754 mmHg 86%
16:00 +4°C° 0.6 mm 4 m/s 754 mmHg 86%
17:00 +3°C° 0.9 mm 4 m/s 754 mmHg 88%
18:00 +3°C° 0.9 mm 4 m/s 754 mmHg 91%
19:00 +1°C° 0.9 mm 4 m/s 754 mmHg 94%
20:00 +1°C° 1.1 mm 5 m/s 754 mmHg 95%
21:00 +1°C° 1.1 mm 5 m/s 754 mmHg 96%
22:00 +1°C° 1.1 mm 5 m/s 753 mmHg 97%
23:00 -1°C° 0.8 mm 6 m/s 753 mmHg 96%

14 Aprilie, Miercuri

Timp Temperatura Precipitaţii Vânt Presiune Umiditate
00:00 -1°C° 0.8 mm 6 m/s 753 mmHg 95%
01:00 -1°C° 0.8 mm 6 m/s 753 mmHg 94%
02:00 -2°C° 0.8 mm 6 m/s 753 mmHg 95%
03:00 -2°C° 0.8 mm 6 m/s 753 mmHg 96%
04:00 -2°C° 0.8 mm 6 m/s 752 mmHg 97%
05:00 -2°C° 0.8 mm 6 m/s 753 mmHg 97%
06:00 -2°C° 0.8 mm 6 m/s 753 mmHg 96%
07:00 -1°C° 0.8 mm 5 m/s 753 mmHg 95%
08:00 -1°C° 0.4 mm 6 m/s 753 mmHg 95%
09:00 -1°C° 0.4 mm 6 m/s 752 mmHg 94%
10:00 -1°C° 0.4 mm 6 m/s 752 mmHg 94%
11:00 +1°C° 0.2 mm 6 m/s 752 mmHg 93%
12:00 +1°C° 0.2 mm 6 m/s 752 mmHg 93%
13:00 +2°C° 0.2 mm 6 m/s 752 mmHg 92%
14:00 +2°C° 0.2 mm 6 m/s 751 mmHg 92%
15:00 +2°C° 0.2 mm 6 m/s 751 mmHg 92%
16:00 +2°C° 0.2 mm 5 m/s 751 mmHg 92%
17:00 +2°C° 0.1 mm 5 m/s 751 mmHg 93%
18:00 +2°C° 0.1 mm 5 m/s 751 mmHg 94%
19:00 +1°C° 0.1 mm 5 m/s 751 mmHg 95%
20:00 +1°C° 0.2 mm 5 m/s 751 mmHg 96%
21:00 +1°C° 0.2 mm 5 m/s 751 mmHg 96%
22:00 +1°C° 0.2 mm 6 m/s 751 mmHg 97%
23:00 +1°C° 0.2 mm 6 m/s 750 mmHg 97%

15 Aprilie, Joi

Timp Temperatura Precipitaţii Vânt Presiune Umiditate
00:00 -1°C° 0.2 mm 6 m/s 750 mmHg 97%
01:00 -1°C° 0.2 mm 6 m/s 750 mmHg 97%
02:00 0°C° 0.5 mm 5 m/s 750 mmHg 97%
03:00 0°C° 0.5 mm 5 m/s 750 mmHg 97%
04:00 -1°C° 0.5 mm 5 m/s 749 mmHg 97%
05:00 -1°C° 0.8 mm 5 m/s 750 mmHg 98%
06:00 -1°C° 0.8 mm 4 m/s 750 mmHg 98%
07:00 -1°C° 0.8 mm 4 m/s 750 mmHg 98%
08:00 0°C° 0.5 mm 4 m/s 750 mmHg 98%
09:00 0°C° 0.5 mm 4 m/s 750 mmHg 98%
10:00 +2°C° 0.5 mm 3 m/s 750 mmHg 98%
11:00 +2°C° 0.1 mm 3 m/s 750 mmHg 98%
12:00 +2°C° 0.1 mm 3 m/s 751 mmHg 98%
13:00 +3°C° 0.1 mm 4 m/s 751 mmHg 98%
14:00 +3°C° 0 mm 4 m/s 751 mmHg 97%
15:00 +3°C° 0 mm 4 m/s 751 mmHg 97%
16:00 +4°C° 0 mm 4 m/s 751 mmHg 96%
17:00 +3°C° 0.2 mm 4 m/s 751 mmHg 96%
18:00 +3°C° 0.2 mm 4 m/s 752 mmHg 96%
19:00 +3°C° 0.2 mm 4 m/s 752 mmHg 95%
20:00 +1°C° 0.1 mm 4 m/s 752 mmHg 95%
21:00 +1°C° 0.1 mm 4 m/s 752 mmHg 95%
22:00 +1°C° 0.1 mm 4 m/s 752 mmHg 95%
23:00 +1°C° 0 mm 4 m/s 752 mmHg 95%

16 Aprilie, Vineri

Timp Temperatura Precipitaţii Vânt Presiune Umiditate
00:00 +2°C° 0 mm 3 m/s 752 mmHg 96%
01:00 +2°C° 0 mm 3 m/s 752 mmHg 96%
02:00 +2°C° 0.1 mm 3 m/s 752 mmHg 96%
03:00 +2°C° 0.1 mm 3 m/s 752 mmHg 97%
04:00 +2°C° 0.1 mm 3 m/s 752 mmHg 98%
05:00 +2°C° 0.1 mm 3 m/s 752 mmHg 97%
06:00 +2°C° 0.1 mm 3 m/s 752 mmHg 97%
07:00 +2°C° 0.1 mm 3 m/s 753 mmHg 97%
08:00 +2°C° 0.1 mm 3 m/s 753 mmHg 97%
09:00 +2°C° 0.1 mm 3 m/s 753 mmHg 97%
10:00 +2°C° 0.1 mm 3 m/s 754 mmHg 97%
11:00 +2°C° 0.1 mm 3 m/s 754 mmHg 97%
12:00 +3°C° 0.1 mm 3 m/s 754 mmHg 97%
13:00 +3°C° 0.1 mm 3 m/s 754 mmHg 96%
14:00 +4°C° 0 mm 2 m/s 754 mmHg 96%
15:00 +4°C° 0 mm 2 m/s 755 mmHg 97%
16:00 +4°C° 0 mm 2 m/s 755 mmHg 97%
17:00 +4°C° 0 mm 2 m/s 755 mmHg 97%
18:00 +4°C° 0 mm 2 m/s 755 mmHg 98%
19:00 +4°C° 0 mm 2 m/s 756 mmHg 98%
20:00 +4°C° 0 mm 2 m/s 756 mmHg 98%
21:00 +4°C° 0 mm 2 m/s 756 mmHg 98%
22:00 +4°C° 0 mm 2 m/s 756 mmHg 98%
23:00 +4°C° 0.1 mm 2 m/s 756 mmHg 98%
Arată mai mult

Formular de consimțământ

Meteoprog și furnizorii noștri de servicii pot stoca și accesa date personale, precum cookies, identificatori de dispozitiv sau alte tehnologii similare pe dispozitivul dumneavoastră și procesa astfel de date pentru a personaliza conținutul și reclamele, dar și pentru a oferi caracteristici de social media și pentru a analiza traficul.

  • Stocarea și/sau accesarea informațiilor pe dispozitivul dumneavoastră

    Cookies, identificatori de dispozitiv sau alte informații pot fi stocate sau accesate pe dispozitiv în scopurile indicate mai sus.

  • Reclame și conținut personalizat, evaluarea reclamelor și a conținutului, informații despre audiențe și dezvoltarea produselor

    Reclamele și conținutul pot fi personalizate pe baza unui profil. Pot fi adăugate date suplimentare pentru a personaliza mai bine reclamele și conținutul. Performanța reclamelor și conținutului poate fi măsurată. Pot fi obținute informații despre utilizatorii care au văzut reclamele și conținutul. Aceste date pot fi utilizate pentru a dezvolta sau îmbunătăți experiența utilizatorilor, sistemele și software-ul.

Dând clic pe ‘Sunt de acord’, permiteți utilizarea cookie-urilor menționate, a identificatorilor de dispozitiv, balizelor web sau altor tehnologii similare. Setările pot fi modificate din browser-ul dispozitivului dumneavoastră.

În anumite scopuri, interesele legitime pot prima asupra consimțământului. Puteți citi mai multe informații în acest sens în Politica privind Confidențialitatea Datelor și Cookie.